EW1976 Ferndale WA US current weather conditions

sailwx.info

Wind from 119

Air temperature 11.7° C
Dewpoint 10.2° C

Last reported at 2020-Jul-10 10:00 UTC.
Time now 2020-Jul-10 10:23 UTC

Location: N 48°54' W 122°35'.
View on Google Maps.

See reports from other nearby stations

  
Tides and Currents Weather Stations Pressure Air Temp Water Temp Dewpoint Dewpoint Depression Visibility Wind Speed Wind Dir Waves Ship Positions
date/time (UTC)wind fromknots sea level pressurealtimeterstation pressurevisibilityair tempwater tempwave heightnotes
2020-Jul-10 10:00 119 11.7
2020-Jul-10 09:45 119 11.7
2020-Jul-10 09:30 108 11.7
2020-Jul-10 09:15 147 11.7
2020-Jul-10 09:01 077 11.7
2020-Jul-10 08:46 077 11.7
2020-Jul-10 08:32 077 11.7
2020-Jul-10 08:16 077 11.7
2020-Jul-10 08:02 077 11.7
2020-Jul-10 07:46 077 11.7
2020-Jul-10 07:31 077 12.2
2020-Jul-10 07:16 077 12.2
2020-Jul-10 07:01 077 12.2
2020-Jul-10 06:47 077 12.8
2020-Jul-10 06:32 077 12.8
2020-Jul-10 06:17 082 12.8
2020-Jul-10 06:01 082 12.8
2020-Jul-10 05:45 082 13.3
2020-Jul-10 05:31 082 13.3
2020-Jul-10 05:16 082 13.9
2020-Jul-10 05:01 087 13.9
2020-Jul-10 04:46 144 14.4
2020-Jul-10 04:30 158 15.0
2020-Jul-10 04:16 213 15.0
2020-Jul-10 04:01 207 15.6
2020-Jul-10 03:47 201 16.1
2020-Jul-10 03:30 161 17.2
2020-Jul-10 03:15 174 18.3
2020-Jul-10 03:00 206 19.4
2020-Jul-10 02:46 174 19.4
2020-Jul-10 02:30 176 0 gusting 3 19.4
2020-Jul-10 02:15 200 20.0
2020-Jul-10 02:00 188 20.0
2020-Jul-10 01:46 160 0 gusting 2 20.0
2020-Jul-10 01:30 207 0 gusting 2 20.6
2020-Jul-10 01:15 127 0 gusting 3 20.6
2020-Jul-10 01:00 201 1 gusting 4 20.6
2020-Jul-10 00:45 143 21.1
2020-Jul-10 00:30 166 0 gusting 6 20.6
2020-Jul-10 00:15 200 21.1
2020-Jul-10 00:00 290 21.1
2020-Jul-09 23:46 120 0 gusting 4 20.6
2020-Jul-09 23:30 132 0 gusting 2 19.4
2020-Jul-09 23:15 151 0 gusting 1 20.0
2020-Jul-09 23:00 236 19.4
2020-Jul-09 22:45 293 20.0
2020-Jul-09 22:30 204 19.4
2020-Jul-09 22:15 207 0 gusting 3 18.9
2020-Jul-09 22:00 162 18.9
2020-Jul-09 21:45 293 0 gusting 7 18.9
2020-Jul-09 21:30 224 0 gusting 3 18.9
2020-Jul-09 21:15 202 0 gusting 6 19.4
2020-Jul-09 21:00 198 19.4
2020-Jul-09 20:47 208 1 gusting 4 18.9
2020-Jul-09 20:31 168 0 gusting 3 18.9
2020-Jul-09 20:16 134 1 gusting 3 18.3
2020-Jul-09 20:01 242 0 gusting 4 18.9
2020-Jul-09 19:46 203 18.9
2020-Jul-09 19:31 076 17.8
2020-Jul-09 19:16 110 17.8
2020-Jul-09 19:01 169 0 gusting 2 17.8
2020-Jul-09 18:46 194 17.2
2020-Jul-09 18:30 218 16.7
2020-Jul-09 18:16 214 16.7
2020-Jul-09 18:01 195 16.1
2020-Jul-09 17:46 164 15.6
2020-Jul-09 17:31 154 15.6
2020-Jul-09 17:15 220 15.0
2020-Jul-09 17:00 217 14.4
2020-Jul-09 16:45 271 14.4
2020-Jul-09 16:30 277 13.9
2020-Jul-09 16:15 229 14.4
2020-Jul-09 16:00 160 13.9
2020-Jul-09 15:45 227 13.9
2020-Jul-09 15:30 155 13.9
2020-Jul-09 15:15 154 13.9
2020-Jul-09 15:01 154 13.9
2020-Jul-09 14:45 154 13.3
2020-Jul-09 14:31 154 13.3
2020-Jul-09 14:15 153 13.3
2020-Jul-09 14:01 153 13.3
2020-Jul-09 13:45 172 13.3
2020-Jul-09 13:30 178 13.3
2020-Jul-09 13:15 178 13.3
2020-Jul-09 13:00 178 13.3
2020-Jul-09 12:45 178 13.3
2020-Jul-09 12:15 205 13.3
2020-Jul-09 12:00 236 13.3
2020-Jul-09 11:45 236 13.3
2020-Jul-09 11:30 236 13.3
2020-Jul-09 11:15 236 13.9
2020-Jul-09 11:00 236 13.9
2020-Jul-09 10:45 236 13.9
2020-Jul-09 10:30 236 13.9
2020-Jul-09 10:15 236 13.9
2020-Jul-09 10:00 236 13.9
2020-Jul-09 09:45 236 13.9
2020-Jul-09 09:30 217 13.9
2020-Jul-09 09:17 217 13.9
2020-Jul-09 09:01 217 13.9
2020-Jul-09 08:46 217 13.9
2020-Jul-09 08:31 217 14.4
2020-Jul-09 08:16 309 14.4
2020-Jul-09 08:01 309 14.4
2020-Jul-09 07:46 309 14.4
2020-Jul-09 07:31 309 14.4
2020-Jul-09 07:16 309 14.4
2020-Jul-09 07:02 309 14.4
2020-Jul-09 06:46 309 15.0
2020-Jul-09 06:31 309 15.0
2020-Jul-09 06:17 309 15.0
2020-Jul-09 06:01 309 15.6
2020-Jul-09 05:45 309 15.6
2020-Jul-09 05:32 354 15.6
2020-Jul-09 05:16 354 15.6
2020-Jul-09 05:01 354 15.6
2020-Jul-09 04:46 354 16.1
2020-Jul-09 04:31 354 16.1
2020-Jul-09 04:16 354 16.7
2020-Jul-09 04:01 354 16.7
2020-Jul-09 03:46 271 17.2
2020-Jul-09 03:31 270 17.8
2020-Jul-09 03:16 275 18.3
2020-Jul-09 03:01 255 0 gusting 2 18.3
2020-Jul-09 02:46 284 0 gusting 2 18.9
2020-Jul-09 02:30 233 19.4
2020-Jul-09 02:16 257 19.4
2020-Jul-09 02:00 200 20.0
2020-Jul-09 01:46 134 20.0
2020-Jul-09 01:30 128 20.6
2020-Jul-09 01:16 158 20.6
2020-Jul-09 01:01 219 1 gusting 4 20.6
2020-Jul-09 00:46 265 0 gusting 3 21.1
2020-Jul-09 00:30 281 0 gusting 3 21.7
2020-Jul-09 00:16 209 21.1
2020-Jul-09 00:00 207 21.7
2020-Jul-08 23:45 287 2 gusting 5 21.7
2020-Jul-08 23:31 301 2 gusting 7 20.6
2020-Jul-08 23:15 301 20.6
2020-Jul-08 23:00 278 0 gusting 6 20.6
2020-Jul-08 22:45 199 0 gusting 6 20.6
2020-Jul-08 22:30 281 3 gusting 9 20.0
2020-Jul-08 22:15 209 1 gusting 10 20.0
2020-Jul-08 22:00 203 2 gusting 6 20.6
2020-Jul-08 21:45 291 0 gusting 6 20.6
2020-Jul-08 21:30 247 1 gusting 5 20.0
2020-Jul-08 21:15 276 0 gusting 6 19.4
2020-Jul-08 21:00 262 1 gusting 5 19.4
2020-Jul-08 20:45 164 19.4
2020-Jul-08 20:30 240 0 gusting 6 20.0
2020-Jul-08 20:15 193 1 gusting 6 20.6
2020-Jul-08 20:02 267 1 gusting 6 20.6
2020-Jul-08 19:48 205 3 gusting 6 19.4
2020-Jul-08 19:35 287 0 gusting 6 20.0
2020-Jul-08 19:16 195 1 gusting 4 20.6
2020-Jul-08 19:02 128 0 gusting 11 19.4
2020-Jul-08 18:46 253 0 gusting 3 19.4
2020-Jul-08 18:31 262 0 gusting 2 18.3
2020-Jul-08 18:17 224 17.8
2020-Jul-08 18:01 152 17.2
2020-Jul-08 17:46 199 0 gusting 1 16.7
2020-Jul-08 17:30 274 16.1
2020-Jul-08 17:15 140 0 gusting 2 16.1
2020-Jul-08 17:02 191 15.6
2020-Jul-08 16:45 185 0 gusting 2 15.6
2020-Jul-08 16:31 205 15.6
2020-Jul-08 16:16 134 15.0
2020-Jul-08 16:01 158 0 gusting 3 15.0
2020-Jul-08 15:45 140 14.4
2020-Jul-08 15:30 186 14.4
2020-Jul-08 15:15 202 0 gusting 2 14.4
2020-Jul-08 15:01 160 0 gusting 4 14.4
2020-Jul-08 14:45 179 0 gusting 3 14.4
2020-Jul-08 14:30 258 0 gusting 2 14.4
2020-Jul-08 14:15 155 13.9
2020-Jul-08 14:00 139 12.8
2020-Jul-08 13:45 138 12.2
2020-Jul-08 13:30 138 12.2
2020-Jul-08 13:16 193 12.2
2020-Jul-08 13:00 158 12.2
2020-Jul-08 12:45 162 11.7
2020-Jul-08 12:30 226 11.1
2020-Jul-08 12:15 119 11.7
2020-Jul-08 12:00 119 11.7
2020-Jul-08 11:45 119 11.7
2020-Jul-08 11:30 146 12.2
2020-Jul-08 11:15 145 12.2
2020-Jul-08 11:01 131 12.8
2020-Jul-08 10:46 184 12.8
2020-Jul-08 10:31 146 13.3
2020-Jul-08 10:16 205 13.3
2020-Jul-08 10:03 193 13.3